アトラス彗星

P/2019 A2 ( ATLAS )

English version
Home page
Updated on September 18, 2021

---------------------------------------------------------------------

・ プロフィール

発見日 2019年1月4日
発見光度 18.7等
発見者 Asteroid Terrestrial-Impact Last Alert System (ATLAS) search program

・ 写真集

・ 軌道要素

Epoch 2018 Nov. 18.0 TT = JDT 2458440.5
T 2018 Nov. 21.47630 TT                                 Rudenko
q   3.5429191            (2000.0)            P               Q
n   0.07178512     Peri.  324.22984     -0.24942414     -0.95395191
a   5.7338513      Node   139.46361     +0.93739164     -0.28102669
e   0.3821048      Incl.   14.85483     +0.24307305     +0.10487970
P  13.7
From 282 observations 2018 Nov. 3-2020 Mar. 15, mean residual 0".6.

・ 光度変化

        m1 = 10.5 + 5 logΔ + 10.0 log r

---------------------------------------------------------------------

軌道要素はM.P.E.C. 2021-L04に掲載されたものです。
光度グラフはComet for Windowsで作成したものです。

---------------------------------------------------------------------

Copyright(C) Seiichi Yoshida (comet@aerith.net). All rights reserved.